Regional Weather Roundup
Issued by NWS

Home | Current Version | Previous Version | Text Only | Print | Product List | Glossary Off
Versions: 1 2 3 4 5 6 7 8 9 10 11 12 13 14 15 16 17 18 19 20 21 22 23 24 25 26 27 28 29 30 31 32 33 34 35 36 37 38 39 40 41 42 43 44 45 46 47 48 49 50

000
ASUS43 KDMX 180506
RWRIA

WEATHER ROUNDUP FOR IOWA
NATIONAL WEATHER SERVICE DES MOINES IA
1100 PM CST TUE JAN 17 2017

NOTE: "FAIR" INDICATES FEW OR NO CLOUDS BELOW 12,000 FEET WITH NO
SIGNIFICANT WEATHER AND/OR OBSTRUCTIONS TO VISIBILITY.

* - THESE STATIONS ARE NOT NWS STATIONS...THUS NOT UNDER NWS
QUALITY CONTROL.  THEY ALSO DO NOT REPORT WEATHER SUCH
AS PRECIPITATION OR FOG.

IAZ001>003-012>014-020>022-031>034-043>046-180600-
   NORTHWEST IOWA

CITY           SKY/WX    TMP DP  RH WIND       PRES   REMARKS
CARROLL *      CLOUDY    30  30 100 SW7G14    30.07S FOG     WCI  23
CHEROKEE *     CLOUDY    25  25 100 S3        30.04S
DENISON *      CLOUDY    28  28 100 S6        30.05R FOG     WCI  22
LE MARS *      CLOUDY    28  27  93 S7        30.03F WCI  21
ORANGE CITY *  CLOUDY    27  27 100 S5        30.00F WCI  21
SHELDON *      CLOUDY    27  27 100 S8        29.99S WCI  18
SIOUX CITY     CLOUDY    25  23  92 SE8       30.04R FOG     WCI  16
SPENCER        CLOUDY    25  23  92 S8        30.02S FOG     WCI  16
STORM LAKE *   CLOUDY    27  27 100 SW13      30.03S WCI  16
$$

IAZ055>058-069>071-079>083-090>094-180600-
   SOUTHWEST IOWA

CITY           SKY/WX    TMP DP  RH WIND       PRES   REMARKS
ATLANTIC *     FOG       30  30 100 S9        30.10R VSB 1/4 WCI  22
AUDUBON *      FOG       28  27  93 SW3       30.09R VSB 3/4
CLARINDA *     CLOUDY    28  28 100 S5        30.15R WCI  23
COUNCIL BLFS * CLOUDY    25  25 100 S6        30.08S FOG     WCI  18
CRESTON *      CLOUDY    30  30 100 SW8       30.12R FOG     WCI  23
HARLAN  *      FOG       28  28 100 S8        30.11R VSB 1/2 WCI  20
LAMONI         CLOUDY    31  29  92 SW7       30.12S WCI  24
RED OAK *      CLOUDY    28  28 100 S5        30.12R FOG     WCI  23
SHENANDOAH *   CLOUDY    28  28 100 S10       30.14R WCI  19
$$

IAZ047>049-059>061-072>074-084-180600-
   CENTRAL IOWA

CITY           SKY/WX    TMP DP  RH WIND       PRES   REMARKS
AMES           CLOUDY    31  31 100 W8        30.09S WCI  23
ANKENY *       CLOUDY    32  30  93 W8        30.12R WCI  25
BOONE *        CLOUDY    30  30 100 SW9       30.07S WCI  22
CHARITON *     CLOUDY    32  30  93 SW9       30.12R FOG     WCI  24
DES MOINES     CLOUDY    32  30  92 W7        30.11R WCI  26
GRINNELL*      CLOUDY    32  32  99 W9        30.10R FOG     WCI  24
KNOXVILLE *    FOG       32  30  93 SW8       30.11R VSB 1/4 WCI  25
MARSHALLTOWN   FOG       31  31 100 W9        30.08R VSB 1/2 WCI  23
NEWTON *       CLOUDY    32  32 100 W9        30.10R FOG     WCI  24
PELLA *        CLOUDY    32  32  99 W6        30.13R FOG     WCI  26
PERRY *        CLOUDY    31  31  99 SW8       30.09S FOG     WCI  24
$$

IAZ004>006-015-016-023>025-035-036-180600-
   NORTH CENTRAL IOWA

CITY           SKY/WX    TMP DP  RH WIND       PRES   REMARKS
ALGONA *       CLOUDY    28  28 100 SW13      30.04S FOG     WCI  18
CLARION *      CLOUDY    30  30 100 SW13      30.06R WCI  20
ESTHERVILLE    CLOUDY    25  25 100 S12       30.00S FOG     WCI  14
FORT DODGE *   CLOUDY    28  25  86 MISG      30.07S
MASON CITY     CLOUDY    29  28  96 SW12      30.05S FOG     WCI  19
FOREST CITY *  CLOUDY    30  30 100 SW9       30.04S WCI  22
WEBSTER CITY * CLOUDY    30  30 100 SW13      30.05S WCI  20
IOWA FALLS *   FOG       32  31  96 SW7       30.07S VSB 1/4 WCI  26
$$

IAZ007>011-017>019-026>030-037>042-050>054-066-180600-
   NORTHEAST IOWA

CITY           SKY/WX    TMP DP  RH WIND       PRES   REMARKS
CEDAR RAPIDS   FOG       32  32 100 W3        30.07S VSB 3/4
CHARLES CITY * FOG       30  30 100 SW12      30.05S VSB 1/4 WCI  21
CLINTON *      CLOUDY    33  33 100 W14       30.07R FOG     WCI  23
DECORAH *      CLOUDY    32  32 100 VRB5      30.03R FOG     WCI  27
DUBUQUE        CLOUDY    33  33 100 NW10      30.04R FOG     WCI  25
MONTICELLO *   CLOUDY    34  32  93 W10       30.06S FOG     WCI  26
OELWEIN *      FOG       32  32 100 W8        30.06R VSB 1/2 WCI  25
WATERLOO       FOG       32  31  96 W10       30.07R VSB 1   WCI  24
$$

IAZ064-065-067-068-078-180600-
   EAST CENTRAL IOWA

CITY           SKY/WX    TMP DP  RH WIND       PRES   REMARKS
DAVENPORT      CLOUDY    33  32  96 W10       30.08R FOG     WCI  25
IOWA CITY      CLOUDY    34  33  96 W6        30.11S FOG     WCI  29
MUSCATINE *    CLOUDY    36  32  87 W6        30.11S WCI  31
QUAD CITIES    CLOUDY    35  32  88 W10       30.08R WCI  27
$$

IAZ062-063-075>077-085>089-095>099-180600-
   SOUTHEAST IOWA

CITY           SKY/WX    TMP DP  RH WIND       PRES   REMARKS
BURLINGTON     CLOUDY    36  34  92 W6        30.11R WCI  31
FAIRFIELD *    CLOUDY    36  34  93 W5        30.11R FOG     WCI  32
FORT MADISON * CLOUDY    36  34  93 W3        30.13R
KEOKUK *       CLOUDY    37  36  93 W8        30.12R WCI  31
OSKALOOSA *    CLOUDY    33  32  98 W8        30.12R FOG     WCI  26
OTTUMWA        CLOUDY    35  32  88 W7        30.11R WCI  29
WASHINGTON *   CLOUDY    34  34 100 W7        30.12R FOG     WCI  28
$$

ABBREVIATIONS USED IN REMARKS
   TC - TEMPERATURES IN CELSIUS
  WCI - WIND CHILL INDEX
   HX - HEAT INDEX
  VSB - VISIBILITY
$$





USA.gov is the U.S. government's official web portal to all federal, state and local government web resources and services.